Radiation Dose at Monitoring Post of Fukushima Daini Nuclear Power Station
Date,Time,MP-1(microSv/h),MP-2(microSv/h),MP-3(microSv/h),MP-4(microSv/h),MP-5(microSv/h),MP-6(microSv/h),MP-7(microSv/h),Wind Direction,Wind Velocity(m/s),Rain
2016/08/13,00:00,0.429,0.252,0.444,0.403,0.376,0.208,0.178,-,CALM,No
2016/08/13,00:10,0.427,0.253,0.448,0.402,0.372,0.209,0.178,-,CALM,No
2016/08/13,00:20,0.429,0.253,0.444,0.405,0.375,0.208,0.178,north-northeast,0.6,No
2016/08/13,00:30,0.427,0.252,0.447,0.401,0.372,0.208,0.178,-,CALM,No
2016/08/13,00:40,0.430,0.253,0.444,0.403,0.376,0.208,0.177,north-northeast,0.7,No
2016/08/13,00:50,0.427,0.252,0.447,0.402,0.372,0.207,0.177,northeast,1.1,No
2016/08/13,01:00,0.429,0.252,0.446,0.405,0.377,0.209,0.178,north-northeast,1.1,No
2016/08/13,01:10,0.428,0.252,0.446,0.402,0.373,0.207,0.178,northeast,1.2,No
2016/08/13,01:20,0.430,0.252,0.445,0.405,0.375,0.208,0.176,northeast,1.4,No
2016/08/13,01:30,0.426,0.252,0.446,0.401,0.372,0.207,0.177,east-northeast,1.1,No
2016/08/13,01:40,0.431,0.252,0.446,0.405,0.376,0.208,0.177,north-northeast,1.2,No
2016/08/13,01:50,0.427,0.253,0.446,0.402,0.372,0.207,0.177,north,1.5,No
2016/08/13,02:00,0.429,0.252,0.445,0.403,0.377,0.209,0.176,north-northeast,1.3,No
2016/08/13,02:10,0.427,0.252,0.446,0.401,0.373,0.208,0.178,north-northeast,1.4,No
2016/08/13,02:20,0.430,0.252,0.445,0.404,0.375,0.208,0.178,north,1.0,No
2016/08/13,02:30,0.428,0.252,0.444,0.403,0.372,0.207,0.178,north,1.4,No
2016/08/13,02:40,0.427,0.252,0.445,0.403,0.376,0.209,0.177,north,1.5,No
2016/08/13,02:50,0.428,0.251,0.444,0.402,0.372,0.208,0.178,north,1.7,No
2016/08/13,03:00,0.427,0.251,0.447,0.403,0.375,0.207,0.177,north-northwest,1.6,No
2016/08/13,03:10,0.428,0.253,0.443,0.401,0.372,0.207,0.177,north-northwest,1.4,No
2016/08/13,03:20,0.427,0.250,0.447,0.404,0.375,0.208,0.177,north-northwest,1.3,No
2016/08/13,03:30,0.429,0.250,0.445,0.403,0.372,0.206,0.178,north-northwest,1.3,No
2016/08/13,03:40,0.426,0.251,0.445,0.404,0.378,0.208,0.177,north,1.9,No
2016/08/13,03:50,0.426,0.251,0.445,0.403,0.372,0.207,0.177,north,1.9,No
2016/08/13,04:00,0.428,0.251,0.447,0.402,0.374,0.208,0.177,north,2.0,No
2016/08/13,04:10,0.429,0.251,0.444,0.406,0.372,0.207,0.177,north,2.4,No
2016/08/13,04:20,0.426,0.252,0.446,0.401,0.375,0.208,0.177,north,1.9,No
2016/08/13,04:30,0.429,0.252,0.445,0.403,0.373,0.206,0.178,north-northwest,1.0,No
2016/08/13,04:40,0.427,0.252,0.448,0.400,0.376,0.207,0.177,northwest,1.3,No
2016/08/13,04:50,0.430,0.252,0.444,0.404,0.373,0.207,0.177,northwest,1.2,No
2016/08/13,05:00,0.428,0.251,0.445,0.403,0.376,0.208,0.177,northwest,1.2,No
2016/08/13,05:10,0.430,0.252,0.445,0.404,0.372,0.207,0.178,north-northwest,1.9,No
2016/08/13,05:20,0.427,0.252,0.449,0.400,0.375,0.207,0.177,northwest,2.2,No
2016/08/13,05:30,0.429,0.252,0.444,0.404,0.373,0.207,0.177,northwest,2.5,No
2016/08/13,05:40,0.426,0.252,0.447,0.401,0.375,0.207,0.177,northwest,0.6,No
2016/08/13,05:50,0.429,0.251,0.444,0.404,0.374,0.207,0.177,-,CALM,No
2016/08/13,06:00,0.427,0.252,0.445,0.401,0.373,0.208,0.175,-,CALM,No
2016/08/13,06:10,0.429,0.252,0.445,0.404,0.374,0.208,0.178,-,CALM,No
2016/08/13,06:20,0.426,0.251,0.445,0.401,0.372,0.208,0.177,north,0.9,No
2016/08/13,06:30,0.428,0.253,0.446,0.403,0.375,0.207,0.175,northwest,0.7,No
2016/08/13,06:40,0.427,0.252,0.443,0.400,0.372,0.206,0.174,northwest,0.7,No
2016/08/13,06:50,0.425,0.252,0.446,0.403,0.374,0.208,0.175,north-northeast,0.6,No
2016/08/13,07:00,0.428,0.251,0.443,0.402,0.373,0.207,0.175,north-northeast,0.9,No
2016/08/13,07:10,0.427,0.253,0.445,0.399,0.371,0.208,0.176,east-northeast,1.6,No
2016/08/13,07:20,0.428,0.253,0.445,0.401,0.376,0.207,0.175,northeast,2.0,No
2016/08/13,07:30,0.429,0.250,0.442,0.401,0.373,0.207,0.174,east-northeast,1.2,No
2016/08/13,07:40,0.424,0.251,0.438,0.400,0.371,0.208,0.175,northeast,2.1,No
2016/08/13,07:50,0.428,0.249,0.438,0.398,0.376,0.206,0.175,northeast,3.0,No
2016/08/13,08:00,0.427,0.249,0.444,0.399,0.374,0.207,0.176,east-northeast,2.3,No
2016/08/13,08:10,0.424,0.248,0.446,0.398,0.371,0.207,0.176,east-northeast,2.5,No
2016/08/13,08:20,0.427,0.250,0.442,0.397,0.373,0.208,0.176,northeast,2.7,No
2016/08/13,08:30,0.431,0.250,0.443,0.399,0.376,0.207,0.177,northeast,3.2,No
2016/08/13,08:40,0.428,0.250,0.446,0.401,0.374,0.207,0.177,northeast,2.7,No
2016/08/13,08:50,0.426,0.249,0.445,0.400,0.372,0.207,0.178,northeast,2.6,No
2016/08/13,09:00,0.425,0.249,0.442,0.400,0.371,0.207,0.176,east-northeast,2.2,No
2016/08/13,09:10,0.423,0.251,0.446,0.400,0.372,0.207,0.177,east-northeast,2.7,No
2016/08/13,09:20,0.425,0.251,0.447,0.401,0.370,0.208,0.177,east-northeast,3.4,No
2016/08/13,09:30,0.423,0.252,0.444,0.404,0.372,0.209,0.177,east-northeast,2.8,No
2016/08/13,09:40,0.424,0.251,0.443,0.402,0.371,0.208,0.178,east,2.4,No
2016/08/13,09:50,0.425,0.250,0.446,0.403,0.372,0.209,0.177,east,2.7,No
2016/08/13,10:00,0.424,0.251,0.447,0.404,0.370,0.208,0.178,east-northeast,2.3,No
2016/08/13,10:10,0.424,0.251,0.444,0.403,0.373,0.208,0.177,east-northeast,2.9,No
2016/08/13,10:20,0.427,0.251,0.442,0.404,0.372,0.208,0.176,east-northeast,3.0,No
2016/08/13,10:30,0.424,0.252,0.441,0.404,0.375,0.208,0.178,east,2.3,No
2016/08/13,10:40,0.424,0.251,0.441,0.404,0.374,0.209,0.178,east-northeast,3.4,No
2016/08/13,10:50,0.425,0.252,0.442,0.403,0.373,0.208,0.178,east-northeast,3.9,No
2016/08/13,11:00,0.426,0.252,0.443,0.403,0.374,0.208,0.177,east-northeast,3.1,No
2016/08/13,11:10,0.424,0.252,0.442,0.402,0.373,0.209,0.178,east-northeast,3.3,No
2016/08/13,11:20,0.427,0.251,0.441,0.402,0.374,0.209,0.178,east-northeast,3.9,No
2016/08/13,11:30,0.427,0.251,0.441,0.401,0.375,0.208,0.179,east-northeast,3.9,No
2016/08/13,11:40,0.426,0.251,0.443,0.402,0.376,0.207,0.178,east,3.1,No
2016/08/13,11:50,0.429,0.250,0.441,0.402,0.372,0.207,0.178,east-northeast,3.1,No
2016/08/13,12:00,0.432,0.250,0.442,0.401,0.373,0.207,0.177,east,2.6,No
2016/08/13,12:10,0.429,0.250,0.447,0.402,0.374,0.207,0.179,east,3.3,No
2016/08/13,12:20,0.427,0.252,0.448,0.400,0.373,0.207,0.178,east,3.4,No
2016/08/13,12:30,0.426,0.254,0.446,0.401,0.373,0.206,0.177,east,3.3,No
2016/08/13,12:40,0.426,0.253,0.443,0.400,0.372,0.207,0.178,east,2.6,No
2016/08/13,12:50,0.423,0.252,0.443,0.400,0.372,0.208,0.177,east,2.8,No
2016/08/13,13:00,0.431,0.253,0.442,0.401,0.371,0.208,0.177,east,2.3,No
2016/08/13,13:10,0.431,0.251,0.441,0.403,0.371,0.208,0.176,east,1.9,No
2016/08/13,13:20,0.432,0.251,0.444,0.407,0.370,0.208,0.177,east,2.2,No
2016/08/13,13:30,0.431,0.251,0.449,0.406,0.373,0.208,0.177,east-southeast,2.8,No
2016/08/13,13:40,0.426,0.251,0.447,0.405,0.373,0.209,0.177,east-southeast,2.8,No
2016/08/13,13:50,0.427,0.252,0.445,0.402,0.375,0.209,0.177,east-southeast,2.5,No
2016/08/13,14:00,0.426,0.251,0.445,0.402,0.373,0.208,0.177,east-southeast,2.4,No
2016/08/13,14:10,0.424,0.251,0.444,0.401,0.373,0.209,0.177,east-southeast,1.9,No
2016/08/13,14:20,0.424,0.252,0.439,0.404,0.373,0.208,0.177,east,2.6,No
2016/08/13,14:30,0.426,0.251,0.441,0.401,0.372,0.209,0.177,east,2.2,No
2016/08/13,14:40,0.430,0.251,0.442,0.400,0.373,0.209,0.177,east,2.4,No
2016/08/13,14:50,0.432,0.250,0.444,0.400,0.372,0.208,0.176,east,2.3,No
2016/08/13,15:00,0.431,0.253,0.448,0.400,0.373,0.207,0.176,east,2.1,No
2016/08/13,15:10,0.427,0.253,0.449,0.407,0.373,0.207,0.176,east-northeast,2.0,No
2016/08/13,15:20,0.426,0.253,0.445,0.407,0.372,0.208,0.177,east,2.3,No
2016/08/13,15:30,0.426,0.253,0.444,0.405,0.372,0.209,0.176,east-northeast,2.0,No
2016/08/13,15:40,0.432,0.252,0.442,0.405,0.372,0.208,0.176,east-northeast,2.4,No
2016/08/13,15:50,0.432,0.251,0.442,0.401,0.372,0.208,0.176,east-northeast,2.5,No
2016/08/13,16:00,0.429,0.250,0.443,0.401,0.372,0.208,0.176,east-northeast,1.6,No
2016/08/13,16:10,0.427,0.253,0.450,0.405,0.372,0.208,0.179,northeast,2.5,No
2016/08/13,16:20,0.425,0.254,0.448,0.406,0.372,0.209,0.179,east-northeast,1.9,No
2016/08/13,16:30,0.424,0.253,0.444,0.404,0.372,0.209,0.177,east-northeast,1.7,No
2016/08/13,16:40,0.431,0.252,0.443,0.401,0.375,0.208,0.177,east,1.2,No
2016/08/13,16:50,0.433,0.253,0.448,0.405,0.374,0.208,0.179,east-northeast,2.0,No
2016/08/13,17:00,0.430,0.253,0.448,0.405,0.374,0.208,0.179,east-northeast,2.3,No
2016/08/13,17:10,0.426,0.251,0.444,0.403,0.374,0.209,0.177,east,1.2,No
2016/08/13,17:20,0.431,0.252,0.446,0.404,0.373,0.209,0.177,east,2.0,No
2016/08/13,17:30,0.433,0.253,0.449,0.406,0.372,0.208,0.178,east-northeast,2.1,No
2016/08/13,17:40,0.430,0.254,0.446,0.404,0.373,0.208,0.179,east-northeast,1.9,No
2016/08/13,17:50,0.424,0.251,0.443,0.401,0.372,0.208,0.177,northeast,2.2,No
2016/08/13,18:00,0.430,0.253,0.447,0.407,0.377,0.209,0.178,east-southeast,2.3,No
2016/08/13,18:10,0.431,0.255,0.448,0.406,0.380,0.208,0.180,east,1.2,No
2016/08/13,18:20,0.427,0.251,0.444,0.402,0.375,0.208,0.178,east,1.6,No
2016/08/13,18:30,0.431,0.253,0.447,0.406,0.374,0.208,0.179,east-northeast,1.1,No
2016/08/13,18:40,0.432,0.252,0.448,0.405,0.378,0.209,0.179,east,1.5,No
2016/08/13,18:50,0.428,0.252,0.444,0.403,0.375,0.208,0.177,east,1.7,No
2016/08/13,19:00,0.431,0.254,0.449,0.407,0.375,0.207,0.177,east-southeast,1.3,No
2016/08/13,19:10,0.431,0.253,0.448,0.405,0.378,0.209,0.179,east,2.2,No
2016/08/13,19:20,0.428,0.253,0.442,0.404,0.373,0.208,0.177,east,1.3,No
2016/08/13,19:30,0.430,0.253,0.449,0.406,0.374,0.207,0.179,east-southeast,2.3,No
2016/08/13,19:40,0.430,0.252,0.447,0.403,0.376,0.208,0.177,east,1.8,No
2016/08/13,19:50,0.427,0.253,0.444,0.404,0.373,0.208,0.177,east,1.7,No
2016/08/13,20:00,0.430,0.253,0.447,0.405,0.376,0.208,0.179,east,1.6,No
2016/08/13,20:10,0.429,0.253,0.447,0.402,0.375,0.209,0.178,east,1.6,No
2016/08/13,20:20,0.427,0.253,0.445,0.406,0.375,0.207,0.179,east-southeast,1.6,No
2016/08/13,20:30,0.432,0.253,0.448,0.404,0.377,0.207,0.178,east-southeast,0.8,No
2016/08/13,20:40,0.429,0.253,0.444,0.403,0.374,0.208,0.179,north-northwest,0.6,No
2016/08/13,20:50,0.429,0.255,0.448,0.407,0.375,0.208,0.179,-,CALM,No
2016/08/13,21:00,0.430,0.252,0.448,0.402,0.376,0.209,0.178,-,CALM,No
2016/08/13,21:10,0.429,0.255,0.447,0.407,0.374,0.208,0.178,-,CALM,No
2016/08/13,21:20,0.432,0.252,0.448,0.404,0.377,0.208,0.177,-,CALM,No
2016/08/13,21:30,0.427,0.254,0.445,0.404,0.374,0.208,0.179,-,CALM,No
2016/08/13,21:40,0.430,0.253,0.449,0.405,0.376,0.209,0.178,-,CALM,No
2016/08/13,21:50,0.431,0.254,0.447,0.403,0.374,0.209,0.179,-,CALM,No
2016/08/13,22:00,0.429,0.253,0.447,0.406,0.374,0.208,0.179,-,CALM,No
2016/08/13,22:10,0.431,0.253,0.449,0.402,0.375,0.209,0.179,-,CALM,No
2016/08/13,22:20,0.429,0.254,0.447,0.407,0.374,0.208,0.178,-,CALM,No
2016/08/13,22:30,0.430,0.253,0.449,0.403,0.376,0.209,0.178,-,CALM,No
2016/08/13,22:40,0.429,0.255,0.446,0.405,0.374,0.208,0.179,-,CALM,No
2016/08/13,22:50,0.430,0.253,0.448,0.406,0.377,0.209,0.177,-,CALM,No
2016/08/13,23:00,0.429,0.255,0.446,0.404,0.374,0.208,0.179,northeast,0.7,No
2016/08/13,23:10,0.430,0.252,0.448,0.404,0.377,0.208,0.178,north,0.8,No
2016/08/13,23:20,0.429,0.254,0.448,0.404,0.375,0.209,0.179,north,1.3,No
2016/08/13,23:30,0.429,0.251,0.448,0.406,0.376,0.208,0.178,north,1.8,No
2016/08/13,23:40,0.432,0.254,0.447,0.404,0.374,0.209,0.179,north,1.5,No
2016/08/13,23:50,0.426,0.252,0.447,0.407,0.374,0.207,0.178,north-northwest,1.0,No
